Regional Weather Roundup
Issued by NWS

Home | Current Version | Previous Version | Text Only | Print | Product List | Glossary On
Versions: 1 2 3 4 5 6 7 8 9 10 11 12 13 14 15 16 17 18 19 20 21 22 23 24 25 26 27 28 29 30 31 32 33 34 35 36 37 38 39 40 41 42 43 44 45 46 47 48 49 50
000
ASUS46 KSTO 260015
RWRCA

NORTHERN AND CENTRAL CA REGIONAL WEATHER ROUNDUP
NATIONAL WEATHER SERVICE SACRAMENTO CA
500 PM PDT FRI MAY 25 2018

NOTE: FAIR INDICATES FEW OR NO CLOUDS BELOW 12,000 FEET WITH NO
SIGNIFICANT WEATHER AND/OR OBSTRUCTIONS TO VISIBILITY.

CAZ001-003-260100-
NORTHWEST AREA

CITY           SKY/WX    TMP DP  RH WIND       PRES   REMARKS
CRESCENT CITY  CLOUDY    53  50  89 N9        30.12S
UKIAH          LGT RAIN  58  54  86 E5        30.10S
$$

CAZ006-505>513-260100-
BAY AREA

CITY           SKY/WX    TMP DP  RH WIND       PRES   REMARKS
SANTA ROSA     PTSUNNY   62  51  67 W9        30.09F
SAN RAFAEL     N/A       61  MM  MM MISG
NAPA           PTSUNNY   63  50  62 SW10      30.10S
CONCORD        PTSUNNY   67  48  50 SW14      30.09F
OAKLAND CITY   N/A      MM  MM  MM MISG
OAKLAND        PTSUNNY   61  53  75 W14       30.12S
SAN FRAN CITY  N/A       58  MM  76 MISG
SAN FRAN ARPT  PTSUNNY   62  50  64 SW13      30.11F
LIVERMORE      CLOUDY    61  53  75 W12       30.09F
HAYWARD        PTSUNNY   63  51  65 W13       30.11F
REDWOOD CITY   N/A       64  MM  63 MISG
MOFFETT ARPT   CLOUDY    64  51  62 E6        30.09F
SAN JOSE ARPT  CLOUDY    63  53  70 N9        30.10F
$$
CAZ034-037-514>518-260100-
CENTRAL COAST

CITY           SKY/WX    TMP DP  RH WIND       PRES   REMARKS
WATSONVILLE    PTSUNNY   61  52  72 SW10      30.13F
SALINAS        MOSUNNY   63  49  60 NW14      30.11F
MONTEREY       MOSUNNY   63  49  60 SW9       30.13F
SAN LUIS OBISP CLOUDY    63  50  62 NW15      30.10F
SANTA MARIA    MOSUNNY   66  50  56 NW17G24   30.11F
$$
CAZ015-016-260100-
NORTHERN SACRAMENTO VALLEY

CITY           SKY/WX    TMP DP  RH WIND       PRES   REMARKS
REDDING        CLOUDY    56  54  93 S8        30.08F
RED BLUFF      CLOUDY    59  54  83 SE8       30.09F
OROVILLE       CLOUDY    63  52  67 SE7       30.10F
$$
CAZ016>018-260100-
SOUTHERN SACRAMENTO VALLEY

CITY           SKY/WX    TMP DP  RH WIND       PRES   REMARKS
AUBURN         PTSUNNY   57  50  77 SW7       30.11S
LINCOLN        CLOUDY    63  48  59 SE5       30.08F
MARYSVILLE     CLOUDY    65  53  65 SE7       30.08F
SAC INTL ARPT  PTSUNNY   66  49  54 S12       30.08F
MATHER AIRPORT CLOUDY    64  48  55 S7        30.08F
DOWNTOWN SAC   N/A       65  MM  MM MISG
SAC EXEC ARPT  CLOUDY    65  50  58 S6        30.09F
VACAVILLE      CLOUDY    66  52  60 SW12      30.09F
$$
CAZ019>021-260100-
SAN JOAQUIN VALLEY

CITY           SKY/WX    TMP DP  RH WIND       PRES   REMARKS
STOCKTON       CLOUDY    66  52  60 CALM      30.08F
MODESTO        CLOUDY    66  50  56 N6        30.07F
MERCED         CLOUDY    67  49  52 CALM      30.06F
LEMOORE        CLOUDY    70  46  42 N6        30.05F
FRESNO         PTSUNNY   70  46  42 NW5       30.06F
HANFORD        PTSUNNY   69  50  50 NE6       30.06F
PORTERVILLE    CLOUDY    71  48  43 VRB6      30.05F
BAKERSFIELD    MOSUNNY   76  45  33 NW14      30.02F
$$
CAZ011-012-071-260100-
NORTHERN MOUNTAINS

CITY           SKY/WX    TMP DP  RH WIND       PRES   REMARKS
YREKA          LGT RAIN  53  51  93 S5        30.02S
MOUNT SHASTA   LGT RAIN  48  47  96 CALM      30.05F
ALTURAS        CLOUDY    50  47  89 W13       30.04S
$$
CAZ011-012-071-260100-
SIERRA NEVADA MTNS

CITY           SKY/WX    TMP DP  RH WIND       PRES   REMARKS
TRUCKEE        PTSUNNY   46  39  76 W10       30.10F
TAHOE VLY ARPT CLOUDY    49  39  68 S9        30.08F
MAMMOTH LAKES  FAIR      58  31  35 NW6G18    29.99F
$$



USA.gov is the U.S. government's official web portal to all federal, state and local government web resources and services.